[[{"header":{"parameterUnit":"m.s-1","parameterCategory":1,"la1":30.2991,"la2":30.254,"lo1":-89.0895,"lo2":-89.0444,"dy":0.0017,"dx":0.0017,"nx":28,"ny":28,"refTime":"2025-05-26T03:00:00:Z","depth":0,"parameterNumber":2,"parameterNumberName":"U-component_of_WINDS"},"data":[0,0,0,0,0,0,0,0,0,0,0,0,0,0,0,0,0,0,0,0,0,0,0,0,0,0,0,0,0,0,0,0,0,0,0,0,0,0,0,0,0,0,0,0,0,0,0,0,0,0,0,0,0,0,0,0,0,0,-0.7068,-0.7069,0,-0.71,-0.71,-0.7101,-0.7109,-0.7109,-0.7109,-0.7109,-0.7142,-0.7143,-0.7144,0,0,0,0,0,0,0,0,0,0,0,0,0,-0.7018,-0.7019,-0.7068,-0.7069,-0.7069,-0.71,-0.71,-0.7101,-0.7109,-0.7109,-0.7109,-0.7109,-0.7142,-0.7143,-0.7144,0,0,0,0,0,0,0,0,0,0,0,0,0,-0.7044,-0.7019,-0.7068,-0.7077,-0.7078,-0.71,-0.71,-0.7101,-0.7109,-0.7109,-0.7109,-0.7109,-0.7141,-0.7143,-0.7144,-0.7159,0,0,-0.7149,-0.715,0,0,0,0,0,0,0,0,-0.7042,-0.7046,-0.7076,-0.7077,-0.7078,-0.71,-0.7095,-0.712,-0.711,-0.7098,-0.7109,-0.7109,-0.7128,-0.7131,-0.7138,-0.7161,-0.7162,-0.7149,-0.715,-0.7151,-0.7151,0,0,0,0,0,0,0,-0.7041,-0.7044,-0.7081,-0.7076,-0.7077,-0.708,-0.7084,-0.71,-0.7114,-0.7099,-0.7099,-0.7103,-0.7129,-0.7136,-0.7138,-0.7163,-0.7149,-0.7151,-0.7152,-0.7152,-0.7202,-0.7202,0,0,0,0,0,0,-0.7037,-0.7043,-0.708,-0.7082,-0.7059,-0.7082,-0.7085,-0.7094,-0.7114,-0.7117,-0.7103,-0.7103,-0.7133,-0.7137,-0.714,-0.7159,-0.7151,-0.7152,-0.7153,-0.7201,-0.7202,-0.7202,0,0,0,0,0,0,-0.7036,-0.704,-0.7079,-0.7063,-0.7068,-0.7083,-0.7092,-0.7094,-0.7101,-0.7117,-0.712,-0.7107,-0.7133,-0.7137,-0.7155,-0.7161,-0.7153,-0.7154,-0.7201,-0.7201,-0.7202,-0.7198,0,0,0,0,0,0,-0.7034,-0.704,-0.7045,-0.7063,-0.7068,-0.7092,-0.7092,-0.7095,-0.7104,-0.7104,-0.7122,-0.7125,-0.7133,-0.7152,-0.7156,-0.7163,-0.7156,-0.72,-0.7201,-0.7202,-0.7198,-0.7199,-0.7199,0,0,0,0,0,-0.7033,-0.7043,-0.7045,-0.705,-0.7075,-0.7093,-0.7096,-0.7106,-0.7104,-0.711,-0.7121,-0.7124,-0.7159,-0.7154,-0.7158,-0.7165,-0.72,-0.7201,-0.7202,-0.7198,-0.7198,-0.7199,0,0,0,0,0,0,-0.7026,-0.7045,-0.7048,-0.7064,-0.7077,-0.7094,-0.7102,-0.7106,-0.7119,-0.7119,-0.7131,-0.7135,-0.7151,-0.716,-0.7154,-0.7182,-0.718,-0.7182,-0.7175,-0.7176,-0.7177,-0.7174,-0.7157,0,0,0,0,0,-0.7026,-0.7038,-0.7055,-0.7067,-0.7073,-0.7086,-0.7094,-0.7101,-0.7114,-0.712,-0.7132,-0.7145,-0.7159,-0.7168,-0.7182,-0.7199,-0.7204,-0.7207,-0.7207,-0.7208,-0.7209,-0.722,-0.7222,-0.7205,-0.7205,-0.7205,0,0,-0.7027,-0.7039,-0.7046,-0.7066,-0.7076,-0.7089,-0.7091,-0.7104,-0.7114,-0.7122,-0.7139,-0.7148,-0.7164,-0.7182,-0.719,-0.719,-0.7215,-0.7209,-0.7209,-0.721,-0.7221,-0.7223,-0.7224,-0.7205,-0.7205,-0.7205,0,0,-0.7034,-0.7045,-0.7056,-0.7067,-0.7083,-0.7092,-0.7095,-0.7112,-0.7119,-0.7136,-0.7142,-0.7155,-0.7179,-0.719,-0.7199,-0.7213,-0.7217,-0.7217,-0.7221,-0.7231,-0.7232,-0.7234,-0.7239,-0.7241,-0.7219,-0.7219,-0.7219,0,-0.7033,-0.7052,-0.7062,-0.7075,-0.7085,-0.7093,-0.7105,-0.7115,-0.7135,-0.7142,-0.7141,-0.7172,-0.7183,-0.7204,-0.7208,-0.7214,-0.7219,-0.7215,-0.7231,-0.7233,-0.7234,-0.7239,-0.7241,-0.7219,-0.7219,-0.7219,-0.7219,0,-0.7051,-0.7064,-0.7072,-0.7091,-0.7101,-0.7114,-0.7127,-0.7136,-0.7142,-0.7151,-0.7169,-0.7183,-0.7201,-0.7206,-0.7212,-0.7228,-0.7228,-0.7229,-0.7227,-0.7235,-0.7241,-0.7243,-0.7218,-0.7218,-0.7218,-0.7218,0,0,-0.7054,-0.7079,-0.7082,-0.7091,-0.711,-0.7121,-0.7135,-0.7151,-0.716,-0.7173,-0.7186,-0.7207,-0.7208,-0.7219,-0.7226,-0.7235,-0.7246,-0.7235,-0.7236,-0.7237,-0.7266,-0.7265,-0.7267,-0.7249,-0.725,-0.725,-0.7265,0,-0.7064,-0.7089,-0.7099,-0.7119,-0.7132,-0.714,-0.7153,-0.7166,-0.7176,-0.7189,-0.72,-0.7214,-0.7215,-0.7221,-0.7231,-0.7243,-0.7252,-0.7242,-0.7262,-0.7262,-0.7257,-0.727,-0.7269,-0.7282,-0.7267,-0.7268,-0.7268,0,-0.708,-0.7094,-0.7115,-0.7133,-0.7139,-0.715,-0.7167,-0.7179,-0.7195,-0.7201,-0.7213,-0.722,-0.7236,-0.7234,-0.7257,-0.7249,-0.7258,-0.7266,-0.7266,-0.7268,-0.7265,-0.7273,-0.7286,-0.7289,-0.7271,-0.7271,-0.7271,0,-0.708,-0.7105,-0.7121,-0.7128,-0.715,-0.7158,-0.7167,-0.7183,-0.7193,-0.7208,-0.7215,-0.7231,-0.7241,-0.7254,-0.7266,-0.7263,-0.7288,-0.7286,-0.7294,-0.7294,-0.7299,-0.7298,-0.7314,-0.7304,-0.7304,-0.7304,-0.7304,0,-0.7091,-0.7104,-0.7122,-0.7132,-0.7147,-0.7159,-0.7174,-0.7184,-0.7198,-0.7211,-0.7219,-0.7231,-0.7246,-0.726,-0.727,-0.7288,-0.7292,-0.7298,-0.73,-0.7297,-0.7296,-0.7303,-0.7302,-0.7305,-0.7305,-0.7305,-0.7304,0,-0.7094,-0.7107,-0.7125,-0.7144,-0.7149,-0.716,-0.7177,-0.7187,-0.7198,-0.7214,-0.7218,-0.7235,-0.7252,-0.7265,-0.7288,-0.7294,-0.7313,-0.7316,-0.7308,-0.7309,-0.7316,-0.7316,-0.7337,-0.7341,-0.7328,-0.7328,-0.7328,0,-0.71,-0.711,-0.7131,-0.714,-0.7149,-0.7164,-0.7174,-0.7187,-0.7197,-0.7217,-0.7225,-0.7243,-0.7258,-0.7286,-0.73,-0.7318,-0.7321,-0.7327,-0.7323,-0.732,-0.7321,-0.7321,-0.7322,-0.7327,-0.7328,-0.7328,-0.7328,0,-0.711,-0.7116,-0.713,-0.7146,-0.7159,-0.7172,-0.7186,-0.7194,-0.7209,-0.7221,-0.7238,-0.725,-0.7273,-0.7291,-0.7311,-0.7321,-0.7327,-0.7329,-0.7332,-0.7329,-0.7324,-0.7327,-0.7309,-0.7328,-0.7328,-0.7328,-0.7328,-0.7328,-0.7115,-0.7125,-0.7141,-0.7157,-0.7169,-0.7182,-0.7193,-0.7205,-0.722,-0.7239,-0.7246,-0.7265,-0.7282,-0.7309,-0.732,-0.7335,-0.7335,-0.7339,-0.734,-0.7341,-0.7341,-0.7321,-0.7338,-0.7338,-0.7338,-0.7338,-0.7338,0,-0.7125,-0.7136,-0.7151,-0.717,-0.7183,-0.7188,-0.7204,-0.7214,-0.723,-0.7246,-0.726,-0.7281,-0.7299,-0.7315,-0.7334,-0.7344,-0.7347,-0.7348,-0.7348,-0.735,-0.7339,-0.7335,-0.7345,-0.7345,-0.7345,-0.7345,-0.7345,-0.7345,-0.7132,-0.7149,-0.7157,-0.7181,-0.7192,-0.721,-0.7219,-0.7231,-0.7244,-0.7267,-0.7281,-0.7292,-0.7308,-0.7328,-0.7345,-0.735,-0.7356,-0.7357,-0.7362,-0.7352,-0.7351,-0.735,-0.7346,-0.7358,-0.7358,-0.7372,-0.7372,-0.7372]},{"header":{"parameterUnit":"m.s-1","parameterCategory":1,"la1":30.2991,"la2":30.254,"lo1":-89.0895,"lo2":-89.0444,"dy":0.0017,"dx":0.0017,"nx":28,"ny":28,"refTime":"2025-05-26T03:00:00:Z","depth":0,"parameterNumber":3,"parameterNumberName":"V-component_of_WINDS"},"data":[0,0,0,0,0,0,0,0,0,0,0,0,0,0,0,0,0,0,0,0,0,0,0,0,0,0,0,0,0,0,0,0,0,0,0,0,0,0,0,0,0,0,0,0,0,0,0,0,0,0,0,0,0,0,0,0,0,0,3.7115,3.7114,0,3.7094,3.7094,3.7094,3.703,3.7029,3.7028,3.7026,3.7007,3.7008,3.7009,0,0,0,0,0,0,0,0,0,0,0,0,0,3.71,3.71,3.7115,3.7114,3.7114,3.7094,3.7094,3.7094,3.7031,3.7029,3.7027,3.7026,3.7007,3.7008,3.7009,0,0,0,0,0,0,0,0,0,0,0,0,0,3.7096,3.7101,3.7115,3.708,3.7077,3.7095,3.7094,3.7094,3.7031,3.7029,3.7027,3.7025,3.7007,3.7008,3.7009,3.7059,0,0,3.7013,3.7014,0,0,0,0,0,0,0,0,3.7096,3.7096,3.7085,3.7083,3.7079,3.7063,3.7082,3.7082,3.7032,3.7049,3.7026,3.7024,3.7028,3.7027,3.7028,3.7058,3.7057,3.7013,3.7014,3.7014,3.7015,0,0,0,0,0,0,0,3.7096,3.7097,3.7107,3.7085,3.7081,3.7066,3.7063,3.7082,3.705,3.7047,3.7042,3.7041,3.7025,3.7027,3.7027,3.7057,3.7013,3.7014,3.7015,3.7015,3.7128,3.713,0,0,0,0,0,0,3.7101,3.7097,3.7107,3.7106,3.7082,3.7068,3.7065,3.707,3.705,3.7045,3.7042,3.7038,3.7026,3.7026,3.7026,3.7083,3.7014,3.7015,3.7016,3.7125,3.7128,3.713,0,0,0,0,0,0,3.7101,3.7103,3.7108,3.71,3.71,3.7071,3.7077,3.7071,3.7072,3.7046,3.7041,3.705,3.7024,3.7024,3.7051,3.7082,3.7016,3.7017,3.7123,3.7126,3.7129,3.7198,0,0,0,0,0,0,3.7101,3.7103,3.7121,3.7101,3.7101,3.7133,3.7079,3.7072,3.7074,3.7068,3.7052,3.7047,3.7023,3.705,3.7053,3.7082,3.7018,3.712,3.7124,3.7128,3.7193,3.7203,3.7212,0,0,0,0,0,3.7101,3.7142,3.7123,3.7124,3.7123,3.7135,3.7135,3.7105,3.7077,3.7095,3.7079,3.7048,3.7078,3.7053,3.7056,3.7086,3.7118,3.7123,3.7128,3.7188,3.7201,3.7212,0,0,0,0,0,0,3.7167,3.7139,3.7117,3.7153,3.7147,3.7124,3.7147,3.712,3.7122,3.7116,3.708,3.7077,3.7109,3.71,3.7073,3.7133,3.7093,3.7098,3.7138,3.715,3.7159,3.7161,3.7019,0,0,0,0,0,3.7186,3.7198,3.7172,3.7207,3.7205,3.7176,3.7181,3.7158,3.7151,3.7148,3.7134,3.7128,3.7136,3.7143,3.7149,3.7191,3.7187,3.7213,3.7223,3.7231,3.7237,3.7259,3.727,3.7147,3.7147,3.7147,0,0,3.7225,3.7211,3.7221,3.722,3.7212,3.7226,3.7175,3.7191,3.7201,3.7151,3.7175,3.7165,3.7156,3.7191,3.7206,3.7185,3.727,3.7238,3.7244,3.7245,3.7265,3.7277,3.7287,3.715,3.715,3.7149,0,0,3.7303,3.7293,3.732,3.7314,3.7303,3.7284,3.7291,3.7273,3.7263,3.7287,3.725,3.7261,3.7276,3.7271,3.7271,3.7347,3.7319,3.7351,3.7401,3.7423,3.7433,3.7441,3.7468,3.7479,3.7356,3.7356,3.7356,0,3.7353,3.7371,3.7338,3.7357,3.7358,3.7312,3.734,3.7335,3.7328,3.733,3.7306,3.7324,3.7315,3.7348,3.7367,3.7368,3.7375,3.7352,3.7434,3.7442,3.7449,3.7475,3.7485,3.736,3.736,3.7359,3.7359,0,3.7433,3.7446,3.747,3.7463,3.7466,3.7489,3.746,3.7468,3.7446,3.7429,3.7454,3.7442,3.7445,3.7451,3.7429,3.7481,3.7468,3.744,3.7398,3.7465,3.7489,3.7498,3.7366,3.7364,3.7363,3.7362,0,0,3.7552,3.7526,3.7536,3.7532,3.7517,3.7527,3.7548,3.755,3.7557,3.7554,3.7571,3.7585,3.7558,3.7558,3.7535,3.7555,3.7616,3.7523,3.7523,3.7541,3.7673,3.7694,3.7706,3.7597,3.7599,3.76,3.7673,0,3.7626,3.766,3.7631,3.7671,3.7683,3.764,3.7659,3.7652,3.7638,3.7646,3.763,3.764,3.7604,3.7604,3.7621,3.7605,3.7642,3.7599,3.7613,3.7614,3.7616,3.7718,3.7741,3.7811,3.7682,3.7684,3.7685,0,3.7717,3.7716,3.7757,3.7739,3.7743,3.7761,3.776,3.7769,3.776,3.7748,3.7748,3.772,3.7741,3.77,3.7728,3.7699,3.7703,3.7696,3.7698,3.7698,3.7654,3.7722,3.7833,3.7843,3.7699,3.7698,3.7697,0,3.7799,3.7809,3.7835,3.7833,3.7813,3.7826,3.7819,3.7808,3.7811,3.7811,3.7813,3.7816,3.7817,3.782,3.7794,3.7767,3.7825,3.7782,3.7816,3.7817,3.7831,3.783,3.7944,3.7833,3.7833,3.7833,3.7833,0,3.7885,3.7912,3.7872,3.7888,3.7917,3.7884,3.7913,3.7901,3.7892,3.7905,3.7869,3.7882,3.7847,3.7857,3.7837,3.7863,3.7864,3.7855,3.7849,3.7858,3.786,3.7861,3.7855,3.7836,3.7835,3.7834,3.7834,0,3.7983,3.7957,3.7982,3.7961,3.7956,3.7978,3.796,3.7974,3.7957,3.7975,3.7977,3.795,3.796,3.7934,3.794,3.7927,3.7964,3.7951,3.7967,3.7963,3.7999,3.7996,3.8117,3.8132,3.8012,3.8013,3.8014,0,3.8039,3.8058,3.8039,3.8045,3.8039,3.8049,3.8052,3.802,3.8024,3.8016,3.8032,3.8038,3.8041,3.8059,3.8041,3.8045,3.8032,3.8074,3.8032,3.8041,3.8033,3.8032,3.8034,3.8083,3.8084,3.8085,3.8086,0,3.8141,3.8128,3.8133,3.8134,3.8138,3.8137,3.8134,3.8141,3.8107,3.8114,3.8123,3.8126,3.8132,3.8139,3.814,3.8132,3.8104,3.81,3.8108,3.8117,3.8126,3.8122,3.7991,3.8097,3.8096,3.8095,3.8095,3.8094,3.822,3.8235,3.8224,3.8231,3.8225,3.8223,3.8235,3.8219,3.8226,3.8228,3.8209,3.8222,3.8213,3.8211,3.8206,3.8217,3.8197,3.8209,3.8212,3.8216,3.8222,3.8124,3.8217,3.8216,3.8216,3.8216,3.8215,0,3.8321,3.8311,3.8318,3.8314,3.832,3.8292,3.8287,3.8294,3.8306,3.83,3.8304,3.8315,3.8321,3.8303,3.8308,3.8319,3.8307,3.8322,3.8321,3.8319,3.8238,3.8231,3.8332,3.8332,3.8332,3.8332,3.8332,3.8332,3.8374,3.8398,3.8383,3.8405,3.8395,3.8407,3.8407,3.8405,3.84,3.8413,3.8418,3.8406,3.8395,3.8398,3.8404,3.8398,3.8402,3.8421,3.8412,3.8336,3.8325,3.8314,3.8307,3.8422,3.8422,3.8492,3.8492,3.8493]}]]